Location: Newark
(50.8086°N, 4.3114°E)
Time: 20:53:12
(UTC+00:00)

XW-2D - Pass Details

Date: 27 January 2020
Orbit: 507 x 528 km, 97.5° (Epoch: 22 February)

Event Time Altitude Azimuth Distance (km) Brightness Sun altitude
Rises 05:18:16 0° 19° (NNE) 2,632 ? -20.1°
Reaches altitude 10° 05:20:29 10° 28° (NNE) 1,739 ? -19.7°
Maximum altitude 05:24:00 38° 98° (E) 793 ? -19.2°
Drops below altitude 10° 05:27:28 10° 167° (SSE) 1,720 ? -18.6°
Sets 05:29:39 0° 176° (S) 2,600 ? -18.3°
